Regional Weather Roundup
Issued by NWS

Home | Current Version | Previous Version | Graphics & Text | Print | Product List | Glossary On
Versions: 1 2 3 4 5 6 7 8 9 10 11 12 13 14 15 16 17 18 19 20 21 22 23 24 25 26 27 28 29 30 31 32 33 34 35 36 37 38 39 40 41 42 43 44 45 46 47 48 49 50
046
ASUS43 KFSD 231202
RWRSD

WEATHER ROUNDUP FOR SOUTH DAKOTA
NATIONAL WEATHER SERVICE SIOUX FALLS SD
700 AM CDT SAT SEP 23 2017

NOTE: "FAIR" INDICATES FEW OR NO CLOUDS BELOW 12,000 FEET WITH NO
SIGNIFICANT WEATHER AND/OR OBSTRUCTIONS TO VISIBILITY.


SDZ001>005-009-010-012>017-231300-
NORTHWEST AND NORTH CENTRAL SOUTH DAKOTA

CITY           SKY/WX    TMP DP  RH WIND       PRES   REMARKS
BUFFALO          N/A     43  40  89 NW7       30.02R
FAITH            N/A     45  45 100 N12       30.06R
MOBRIDGE       CLOUDY    51  46  83 N12       30.01R
$$

SDZ012>016-024>037-041>051-057-063-072>074-231300-
SOUTHWEST AND SOUTH CENTRAL SOUTH DAKOTA

CITY           SKY/WX    TMP DP  RH WIND       PRES   REMARKS
RAPID CTY ARPT NOT AVBL
PIERRE         CLOUDY    49  46  90 N8        30.00S
CUSTER         FOG       39  37  92 E8        30.03R VSB 1/2
ELLSWORTH AFB  CLOUDY    44  44 100 N16       30.04
PHILIP         CLOUDY    49  44  83 NW13      30.05R
PINE RIDGE     CLOUDY    45  42  89 N8        30.03S
SPEARFISH      CLOUDY    41  41 100 NE5       30.06F FOG
WINNER         CLOUDY    51  49  92 N9        30.00R
$$

SDZ004>011-016>023-039-040-231300-
NORTHEAST SOUTH DAKOTA

CITY           SKY/WX    TMP DP  RH WIND       PRES   REMARKS
ABERDEEN       CLOUDY    52  51  97 CALM      30.00R
WATERTOWN      CLOUDY    55  55 100 NE6       29.93R
BROOKINGS      CLOUDY    57  55  93 E5        29.93F
SISSETON         N/A     54  53  97 NE7       29.93F
$$

SDZ017-020-022-023-036>040-048>070-231300-
SOUTHEAST SOUTH DAKOTA

CITY           SKY/WX    TMP DP  RH WIND       PRES   REMARKS
SIOUX FALLS    CLOUDY    62  61  96 NE6       29.94R
HURON          HVY RAIN  53  53 100 N10       29.95F FOG
CHAMBERLAIN    CLOUDY    53  53  99 CALM      30.00S
MITCHELL       CLOUDY    56  54  93 NW9       29.98R
YANKTON        CLOUDY    56  52  86 NW8       29.96R
$$

ABBREVIATIONS USED IN REMARKS
   TC - TEMPERATURE IN CELSIUS
  WCI - WIND CHILL INDEX
   HX - HEAT INDEX
  VSB - VISIBILITY





USA.gov is the U.S. government's official web portal to all federal, state and local government web resources and services.